Voltar ao catálogo

THORAD DELTA 1 DEB

LostSSO
NORAD 42624·DEBRIS·🇺🇸 United States

Lançado Nov 15, 1974 de Vandenberg Space Force Base

Loading…

Próximas Passagens (próximas 24 horas)

TLE

ObsoletoSource: Space-Track

Época: Aug 25, 2016, 22:19 UTC

1 42624U 74089GR  16238.93055181  .00000080  00000-0  58560-3 0  9993
2 42624 101.1497 274.9063 0063328  76.6577 284.0847 12.73828505550794

Acompanhe THORAD DELTA 1 DEB em tempo real com AllMySat

Download on the App Store